Weather History for KDXR - December, 2000

Change the Weather History Date:

Tuesday, December 26, 2000

  Actual Average Record
Temperature  
Mean Temperature 23 °F -  
Max Temperature 27 °F 35 °F 59 °F (1964)
Min Temperature 19 °F 18 °F -11 °F (1980)
Degree Days  
Heating Degree Days 42    
Moisture  
Dew Point 8 °F    
Average Humidity 54    
Maximum Humidity 71    
Minimum Humidity 47    
Precipitation  
Precipitation 0.00 in - - ()
Sea Level Pressure  
Sea Level Pressure 30.20 in    
Wind  
Wind Speed 9 mph (WNW)    
Max Wind Speed 14 mph    
Max Gust Speed 23 mph    
Visibility 10 miles    
Events      
Averages and records for this station are not official NWS values.
T = Trace of Precipitation, MM = Missing Value Source: NWS Daily Summary

Daily Weather History Graph

Daily Weather History Graph

Search for Another Location

Airport or City:

Trip Planner

Search our weather history database for the weather conditions in past years. The results will help you decide how hot, cold, wet, or windy it might be!

Date:

Astronomy

Dec. 26, 2000 Rise Set
Actual Time 7:18 AM EST 4:30 PM EST
Civil Twilight 6:47 AM EST 5:02 PM EST
Nautical Twilight 6:12 AM EST 5:37 PM EST
Astronomical Twilight 5:38 AM EST 6:10 PM EST
Moon 7:59 AM EST (12/26) 5:26 PM EST (12/26)
Length of Visible Light 10h 14m
Length of Day
9h 11m
New Moon, 1% of the Moon is Illuminated
Dec 26
New Moon
Jan 2
First Quarter
Jan 9
Full
Jan 16
Last Quarter
Jan 24
New

Hourly Weather History & Observations

Time (EST) Temp. Windchill Dew Point Humidity Pressure Visibility Wind Dir Wind Speed Gust Speed Precip Events Conditions
6:45 AM - - - N/A% 30.31 in 10.0 mi West 6.9 mph - N/A   Clear
7:45 AM - - - N/A% 30.31 in 10.0 mi West 6.9 mph - N/A   Clear
8:45 AM - - - N/A% 30.30 in 10.0 mi WNW 13.8 mph - N/A   Clear
9:45 AM - - - N/A% 30.28 in 10.0 mi WNW 11.5 mph - N/A   Clear
10:49 AM - - - N/A% 30.27 in 10.0 mi WNW 11.5 mph - N/A   Clear
11:50 AM - - - N/A% 30.22 in 10.0 mi West 12.7 mph - N/A   Partly Cloudy
12:45 PM - - - N/A% 30.18 in 10.0 mi WNW 12.7 mph - N/A   Scattered Clouds
1:45 PM - - - N/A% 30.14 in 10.0 mi WNW 12.7 mph - N/A   Scattered Clouds
2:45 PM - - - N/A% 30.15 in 10.0 mi WNW 13.8 mph - N/A   Scattered Clouds
2:53 PM 27.0 °F 18.7 °F 9.0 °F 47% 30.18 in - WNW 8.1 mph - N/A   Unknown
3:53 PM 26.1 °F 14.5 °F 8.1 °F 47% 30.18 in 10.0 mi WNW 13.8 mph 23.0 mph N/A   Scattered Clouds
4:53 PM 24.1 °F 14.4 °F 8.1 °F 51% 30.18 in 10.0 mi NW 9.2 mph 17.3 mph N/A   Mostly Cloudy
5:53 PM 24.1 °F 12.0 °F 8.1 °F 51% 30.18 in 10.0 mi WNW 13.8 mph 18.4 mph N/A   Scattered Clouds
6:53 PM 23.0 °F 12.4 °F 7.0 °F 50% 30.18 in 10.0 mi WNW 10.4 mph 18.4 mph N/A   Clear
7:53 PM 23.0 °F 13.1 °F 7.0 °F 50% 30.17 in 10.0 mi WNW 9.2 mph 17.3 mph N/A   Clear
8:53 PM 19.9 °F 14.9 °F 6.1 °F 55% 30.14 in 10.0 mi WSW 3.5 mph - N/A   Clear
9:53 PM 19.9 °F 14.9 °F 7.0 °F 57% 30.14 in 10.0 mi WSW 3.5 mph - N/A   Clear
10:53 PM 19.0 °F 13.9 °F 8.1 °F 62% 30.13 in 10.0 mi SW 3.5 mph - N/A   Clear
11:53 PM 19.0 °F 13.9 °F 10.9 °F 71% 30.11 in 10.0 mi WSW 3.5 mph - N/A   Clear